Back to catalog

SL-8 DEB

AliveLEO
NORAD 3749·DEBRIS·🇷🇺 Russia

Launched Mar 15, 1965 from Baikonur Cosmodrome

Loading…

Next Passes (next 24 hours)

TLE

FreshSource: Space-Track

Epoch: Sep 14, 2026, 06:25 UTC

1 03749U 65020EU  26257.26803314  .00000607  00000-0  25981-3 0  9996
2 03749  56.1107 209.6534 0440771 232.8558 123.1392 13.94017822813088

Track SL-8 DEB in real time with AllMySat

Download on the App Store